Florien, LA

8:26 PM CST on December 09, 2016 (GMT -0600)
Fort Polk

Weather History for KAQV - December, 2012

Change the Weather History Date:

Thursday, December 6, 2012

  Actual Average (KIER) Record (KIER)
Temperature  
Mean Temperature 58 °F -  
Max Temperature 64 °F 64 °F 83 °F (1956)
Min Temperature 51 °F 39 °F 10 °F (1950)
Degree Days  
Heating Degree Days 8    
Growing Degree Days 8 (Base 50)    
Moisture  
Dew Point 54 °F    
Average Humidity 92    
Maximum Humidity 100    
Minimum Humidity 75    
Precipitation  
Precipitation 0.01 in - - ()
Sea Level Pressure  
Sea Level Pressure 29.96 in    
Wind  
Wind Speed 0 mph (NNE)    
Max Wind Speed 4 mph    
Max Gust Speed -    
Visibility 6 miles    
Events Fog    
Averages and records for this station are not official NWS values.
T = Trace of Precipitation, MM = Missing Value Source: NWS Daily Summary

Daily Weather History Graph

Daily Weather History Graph

Search for Another Location

Airport or City:

Trip Planner

Search our weather history database for the weather conditions in past years. The results will help you decide how hot, cold, wet, or windy it might be!

Date:

Astronomy

Dec. 06, 2012 Rise Set
Actual Time 6:58 AM CST 5:09 PM CST
Civil Twilight 6:32 AM CST 5:36 PM CST
Nautical Twilight 6:02 AM CST 6:06 PM CST
Astronomical Twilight 5:32 AM CST 6:36 PM CST
Moon No Moon Rise 12:13 PM CST (12/6)
Length of Visible Light 11h 04m
Length of Day
10h 11m
Waning Gibbous, 49% of the Moon is Illuminated
Dec 6
Waning Gibbous
Dec 13
New
Dec 19
First Quarter
Dec 28
Full
Jan 4
Last Quarter

Hourly Weather History & Observations

Time (CST) Temp. Dew Point Humidity Pressure Visibility Wind Dir Wind Speed Gust Speed Precip Events Conditions
12:48 AM 55.4 °F 53.6 °F 94% 30.04 in 10.0 mi Calm Calm - N/A   Overcast
12:56 AM 55.9 °F 53.1 °F 90% 30.04 in 10.0 mi Calm Calm - N/A   Overcast
1:14 AM 55.4 °F 53.6 °F 94% 30.04 in 10.0 mi Calm Calm - N/A   Overcast
1:56 AM 55.0 °F 53.1 °F 93% 30.04 in 5.0 mi Calm Calm - N/A   Overcast
2:56 AM 55.0 °F 53.1 °F 93% 30.02 in 10.0 mi Calm Calm - N/A   Overcast
3:56 AM 55.0 °F 53.1 °F 93% 30.02 in 8.0 mi North 3.5 mph - N/A   Overcast
4:56 AM 55.0 °F 54.0 °F 96% 30.00 in 3.0 mi ENE 3.5 mph - N/A   Overcast
5:56 AM 55.0 °F 53.1 °F 93% 30.00 in 9.0 mi Calm Calm - N/A   Overcast
6:56 AM 55.0 °F 54.0 °F 96% 30.02 in 3.0 mi NE 3.5 mph - N/A   Overcast
7:56 AM 55.9 °F 54.0 °F 93% 30.02 in 4.0 mi Calm Calm - N/A   Overcast
8:56 AM 55.9 °F 54.0 °F 93% 30.02 in 6.0 mi Calm Calm - N/A   Overcast
9:48 AM 57.2 °F 53.6 °F 88% 30.03 in 9.0 mi Calm Calm - N/A   Overcast
9:56 AM 57.9 °F 54.0 °F 87% 30.02 in 9.0 mi Calm Calm - N/A   Overcast
10:56 AM 59.0 °F 55.0 °F 87% 30.01 in 10.0 mi Calm Calm - N/A   Overcast
11:56 AM 60.1 °F 55.0 °F 83% 29.99 in 10.0 mi Calm Calm - N/A   Overcast
12:56 PM 61.0 °F 55.9 °F 83% 29.96 in 10.0 mi Calm Calm - N/A   Overcast
1:49 PM 62.6 °F 55.4 °F 77% 29.94 in 10.0 mi Calm Calm - N/A   Overcast
1:56 PM 62.1 °F 55.9 °F 80% 29.94 in 10.0 mi Calm Calm - N/A   Overcast
2:03 PM 62.6 °F 55.4 °F 77% 29.94 in 10.0 mi Calm Calm - N/A   Overcast
2:32 PM 62.6 °F 55.4 °F 77% 29.93 in 10.0 mi Calm Calm - N/A   Overcast
2:56 PM 64.0 °F 55.9 °F 75% 29.93 in 10.0 mi Variable 3.5 mph - N/A   Overcast
3:12 PM 62.6 °F 55.4 °F 77% 29.92 in 10.0 mi Variable 3.5 mph - N/A   Overcast
3:56 PM 64.0 °F 55.9 °F 75% 29.92 in 10.0 mi Calm Calm - N/A   Overcast
4:56 PM 62.1 °F 57.0 °F 84% 29.92 in 10.0 mi Calm Calm - N/A   Overcast
6:56 PM 55.9 °F 55.0 °F 97% 29.93 in 2.5 mi Calm Calm - N/A   Clear
7:16 PM 53.6 °F 53.6 °F 100% 29.93 in 1.5 mi Calm Calm - N/A   Partly Cloudy
7:31 PM 53.6 °F 53.6 °F 100% 29.93 in 2.0 mi Calm Calm - N/A   Scattered Clouds
7:34 PM 53.6 °F 53.6 °F 100% 29.93 in 1.8 mi Calm Calm - N/A   Mostly Cloudy
7:46 PM 53.6 °F 53.6 °F 100% 29.93 in 0.5 mi Calm Calm - N/A Fog Fog
7:56 PM 55.0 °F 54.0 °F 96% 29.93 in 0.2 mi Calm Calm - N/A Fog Fog
8:56 PM 55.0 °F 55.0 °F 100% 29.94 in 0.2 mi Calm Calm - N/A Fog Fog
9:56 PM 54.0 °F 54.0 °F 100% 29.93 in 0.5 mi Calm Calm - N/A Fog Fog
10:36 PM 53.6 °F 53.6 °F 100% 29.92 in 1.5 mi Calm Calm - 0.01 in   Mostly Cloudy
10:41 PM 53.6 °F 53.6 °F 100% 29.92 in 3.0 mi Calm Calm - 0.01 in   Mostly Cloudy
10:56 PM 53.1 °F 52.0 °F 96% 29.93 in 5.0 mi Calm Calm - 0.01 in   Partly Cloudy
11:09 PM 51.8 °F 51.8 °F 100% 29.92 in 2.0 mi Calm Calm - N/A   Clear
11:18 PM 51.8 °F 51.8 °F 100% 29.92 in 5.0 mi Calm Calm - N/A   Clear
11:24 PM 51.8 °F 51.8 °F 100% 29.92 in 1.8 mi Calm Calm - N/A   Clear
11:46 PM 51.8 °F 50.0 °F 94% 29.93 in 3.0 mi Calm Calm - N/A   Clear
11:54 PM 51.8 °F 50.0 °F 94% 29.93 in 4.0 mi Calm Calm - N/A   Scattered Clouds
11:56 PM 51.1 °F 50.0 °F 96% 29.93 in 4.0 mi Calm Calm - N/A   Scattered Clouds
11:59 PM 51.8 °F 50.0 °F 94% 29.93 in 2.5 mi Calm Calm - N/A   Mostly Cloudy